Weather History for KHPN - January, 2014

Change the Weather History Date:

Sunday, January 19, 2014

  Actual Average Record
Temperature  
Mean Temperature 30 °F -  
Max Temperature 35 °F 31 °F 52 °F (1986)
Min Temperature 24 °F 18 °F -1 °F (1979)
Degree Days  
Heating Degree Days 36    
Moisture  
Dew Point 17 °F    
Average Humidity 61    
Maximum Humidity 72    
Minimum Humidity 54    
Precipitation  
Precipitation 0.00 in - - ()
Sea Level Pressure  
Sea Level Pressure 29.73 in    
Wind  
Wind Speed 8 mph (WSW)    
Max Wind Speed 13 mph    
Max Gust Speed 21 mph    
Visibility 10 miles    
Events      
Averages and records for this station are not official NWS values.
T = Trace of Precipitation, MM = Missing Value Source: NWS Daily Summary

Daily Weather History Graph

Daily Weather History Graph

Search for Another Location

Airport or City:

Trip Planner

Search our weather history database for the weather conditions in past years. The results will help you decide how hot, cold, wet, or windy it might be!

Date:

Astronomy

Jan. 19, 2014 Rise Set
Actual Time 7:15 AM EST 4:55 PM EST
Civil Twilight 6:45 AM EST 5:25 PM EST
Nautical Twilight 6:11 AM EST 5:59 PM EST
Astronomical Twilight 5:39 AM EST 6:32 PM EST
Moon 8:33 PM EST (1/19) 8:42 AM EST (1/19)
Length of Visible Light 10h 40m
Length of Day
9h 40m
Waning Gibbous, 89% of the Moon is Illuminated
Jan 19
Waning Gibbous
Jan 24
Last Quarter
Jan 30
New
Feb 6
First Quarter
Feb 14
Full

Hourly Weather History & Observations

Time (EST) Temp. Windchill Dew Point Humidity Pressure Visibility Wind Dir Wind Speed Gust Speed Precip Events Conditions
12:56 AM 26.1 °F 15.0 °F 17.1 °F 69% 29.80 in 10.0 mi WNW 12.7 mph - N/A   Clear
1:56 AM 25.0 °F 18.1 °F 17.1 °F 72% 29.81 in 10.0 mi West 5.8 mph - N/A   Clear
2:56 AM 25.0 °F 19.3 °F 16.0 °F 69% 29.82 in 10.0 mi West 4.6 mph - N/A   Clear
3:56 AM 25.0 °F 18.1 °F 16.0 °F 69% 29.81 in 10.0 mi West 5.8 mph - N/A   Clear
4:56 AM 24.1 °F 19.7 °F 15.1 °F 69% 29.81 in 10.0 mi Variable 3.5 mph - N/A   Overcast
5:56 AM 24.1 °F 18.2 °F 15.1 °F 69% 29.80 in 10.0 mi West 4.6 mph - N/A   Overcast
6:56 AM 25.0 °F 18.1 °F 15.1 °F 66% 29.80 in 10.0 mi West 5.8 mph - N/A   Overcast
7:56 AM 24.1 °F 17.0 °F 15.1 °F 69% 29.80 in 10.0 mi WSW 5.8 mph - N/A   Mostly Cloudy
8:56 AM 25.0 °F 18.1 °F 14.0 °F 63% 29.80 in 10.0 mi Variable 5.8 mph - N/A   Mostly Cloudy
9:56 AM 24.1 °F 13.1 °F 12.0 °F 60% 29.80 in 10.0 mi WSW 11.5 mph - N/A   Scattered Clouds
10:56 AM 26.1 °F 19.4 °F 14.0 °F 60% 29.78 in 10.0 mi Variable 5.8 mph - N/A   Overcast
11:56 AM 27.0 °F 18.7 °F 14.0 °F 58% 29.74 in 10.0 mi SW 8.1 mph 16.1 mph N/A   Overcast
12:56 PM 28.9 °F 18.6 °F 15.1 °F 56% 29.70 in 10.0 mi WSW 12.7 mph 19.6 mph N/A   Scattered Clouds
1:56 PM 30.9 °F 23.5 °F 16.0 °F 54% 29.66 in 10.0 mi WSW 8.1 mph 17.3 mph N/A   Scattered Clouds
2:56 PM 30.9 °F 22.8 °F 17.1 °F 57% 29.67 in 10.0 mi West 9.2 mph 20.7 mph N/A   Scattered Clouds
3:56 PM 32.0 °F 24.2 °F 18.0 °F 56% 29.66 in 10.0 mi WSW 9.2 mph - N/A   Scattered Clouds
4:56 PM 32.0 °F 26.4 °F 18.0 °F 56% 29.66 in 10.0 mi Variable 5.8 mph 16.1 mph N/A   Partly Cloudy
5:56 PM 32.0 °F 26.4 °F 18.0 °F 56% 29.68 in 10.0 mi Variable 5.8 mph - N/A   Clear
6:56 PM 32.0 °F 28.7 °F 19.0 °F 59% 29.68 in 10.0 mi WSW 3.5 mph - N/A   Clear
7:56 PM 33.1 °F 27.7 °F 19.9 °F 59% 29.68 in 10.0 mi WSW 5.8 mph - N/A   Mostly Cloudy
8:56 PM 34.0 °F 29.8 °F 21.0 °F 59% 29.67 in 10.0 mi Variable 4.6 mph - N/A   Scattered Clouds
9:56 PM 34.0 °F 26.6 °F 21.0 °F 59% 29.67 in 10.0 mi WSW 9.2 mph 17.3 mph N/A   Clear
10:56 PM 35.1 °F 27.9 °F 19.9 °F 54% 29.66 in 10.0 mi West 9.2 mph 16.1 mph N/A   Scattered Clouds
11:56 PM 34.0 °F 26.6 °F 19.9 °F 56% 29.65 in 10.0 mi West 9.2 mph - N/A   Clear